{"data":{"norad_id":59033,"epoch":"2026-09-20T07:42:24.457824Z","epoch_age_seconds":171866,"freshness":"FRESH","line1":"1 59033U 24038L   26263.32111641 -.00000371  00000+0 -39589-5 0  9996","line2":"2 59033  43.0067   4.4744 0001724 285.3571  74.7090 15.27574165144627","mean_motion":15.27574165,"eccentricity":0.0001724,"inclination_deg":43.0067,"raan_deg":4.4744,"arg_perigee_deg":285.3571,"mean_anomaly_deg":74.709,"bstar":-3.9589e-6,"rev_number":14462,"period_min":94.267108792063,"perigee_km":481.88369668924,"apogee_km":484.24943967955,"semimajor_km":6861.2035681844,"source":"CELESTRAK","updated_at":"2026-09-21T09:00:34.029944Z"}}